Location: Unspecified
(0.0000°N, 0.0000°E)
Time: 07:04:08
(UTC+00:00)

Vanguard 2 Rocket - Pass Details

Date: 27 November 2019
Orbit: 554 x 3326 km, 32.9° (Epoch: 11 December)

Event Time Altitude Azimuth Distance (km) Brightness Sun altitude
Rises 03:40:05 0° 345° (NNW) 3,244 - -29.5°
Reaches altitude 10° 03:43:44 10° 13° (NNE) 2,686 - -28.7°
Exits shadow 03:43:55 10° 15° (NNE) 2,676 9.2 -28.6°
Maximum altitude 03:46:47 13° 42° (NE) 2,773 9.5 -28.0°
Drops below altitude 10° 03:50:32 10° 69° (ENE) 3,462 10.4 -27.1°
Sets 03:56:42 0° 92° (E) 5,155 11.8 -25.7°
